"Period start","avg(HW err(1)/warn(2) (#))","avg(Visibility (m))","avg(Weather code (#))","avg(Precip intensity (mm/h))","min(HW err(1)/warn(2) (#))","max(HW err(1)/warn(2) (#))","std(HW err(1)/warn(2) (#))","med(HW err(1)/warn(2) (#))","min(Visibility (m))","max(Visibility (m))","std(Visibility (m))","med(Visibility (m))","min(Weather code (#))","max(Weather code (#))","std(Weather code (#))","med(Weather code (#))","min(Precip intensity (mm/h))","max(Precip intensity (mm/h))","std(Precip intensity (mm/h))","med(Precip intensity (mm/h))"
2017-06-18 00:00:00,2,44664,0,0.00,2,2,0,2,39502,50000,3235,44096,0,0,0,0,0.00,0.00,0.00,0.00
2017-06-18 00:10:00,2,43094,0,0.00,2,2,0,2,29680,50000,7629,45912,0,0,0,0,0.00,0.00,0.00,0.00
2017-06-18 00:20:00,2,40479,0,0.00,2,2,0,2,32237,49899,5712,39467,0,0,0,0,0.00,0.00,0.00,0.00
2017-06-18 00:30:00,2,41787,0,0.00,2,2,0,2,32190,50000,5270,43777,0,0,0,0,0.00,0.00,0.00,0.00
2017-06-18 00:40:00,2,45534,0,0.00,2,2,0,2,38068,50000,4816,47818,0,0,0,0,0.00,0.00,0.00,0.00
2017-06-18 00:50:00,2,40433,0,0.00,2,2,0,2,25757,50000,9233,41888,0,0,0,0,0.00,0.00,0.00,0.00
2017-06-18 01:00:00,2,42844,0,0.00,2,2,0,2,32851,49788,4904,43196,0,0,0,0,0.00,0.00,0.00,0.00
2017-06-18 01:10:00,2,37477,0,0.00,2,2,0,2,30040,48693,5651,36411,0,0,0,0,0.00,0.00,0.00,0.00
2017-06-18 01:20:00,2,37032,0,0.00,0,2,1,2,27127,48827,6496,36591,0,0,0,0,0.00,0.00,0.00,0.00
2017-06-18 01:30:00,1,47242,0,0.00,0,2,1,0,36442,50000,4304,49922,0,0,0,0,0.00,0.00,0.00,0.00
2017-06-18 01:40:00,2,44700,0,0.00,2,2,0,2,36396,50000,4950,43912,0,0,0,0,0.00,0.00,0.00,0.00
2017-06-18 01:50:00,2,43428,0,0.00,2,2,0,2,27944,50000,7455,47201,0,0,0,0,0.00,0.00,0.00,0.00
2017-06-18 02:00:00,2,38938,0,0.00,2,2,0,2,14586,50000,12011,44142,0,0,0,0,0.00,0.00,0.00,0.00
2017-06-18 02:10:00,2,42306,0,0.00,0,2,1,2,27494,50000,7193,45883,0,0,0,0,0.00,0.00,0.00,0.00
2017-06-18 02:20:00,2,40223,0,0.00,2,2,0,2,25151,50000,10095,43114,0,0,0,0,0.00,0.00,0.00,0.00
2017-06-18 02:30:00,2,43694,0,0.00,0,2,1,2,32956,50000,5461,45842,0,0,0,0,0.00,0.00,0.00,0.00
2017-06-18 02:40:00,1,44525,0,0.00,0,2,1,2,35673,50000,4805,45319,0,0,0,0,0.00,0.00,0.00,0.00
2017-06-18 02:50:00,1,47152,0,0.00,0,2,1,2,39746,50000,3338,48514,0,0,0,0,0.00,0.00,0.00,0.00
2017-06-18 03:00:00,2,36661,0,0.00,0,2,1,2,27923,43267,5047,36922,0,0,0,0,0.00,0.00,0.00,0.00
2017-06-18 03:10:00,2,39700,0,0.00,2,2,0,2,24186,47989,6704,41819,0,0,0,0,0.00,0.00,0.00,0.00
2017-06-18 03:20:00,1,40200,0,0.00,0,2,1,2,29706,50000,6806,40754,0,0,0,0,0.00,0.00,0.00,0.00
2017-06-18 03:30:00,2,41709,0,0.00,2,2,0,2,32375,50000,5274,40156,0,0,0,0,0.00,0.00,0.00,0.00
2017-06-18 03:40:00,1,41836,0,0.00,0,2,1,0,33523,50000,6631,41453,0,0,0,0,0.00,0.00,0.00,0.00
2017-06-18 03:50:00,0,44874,0,0.00,0,2,1,0,37345,50000,3358,45638,0,0,0,0,0.00,0.00,0.00,0.00
2017-06-18 04:00:00,1,45275,0,0.00,0,2,1,0,29945,50000,6832,48742,0,0,0,0,0.00,0.00,0.00,0.00
2017-06-18 04:10:00,2,43259,0,0.00,0,2,1,2,32236,50000,5210,43678,0,0,0,0,0.00,0.00,0.00,0.00
2017-06-18 04:20:00,0,42963,0,0.00,0,0,0,0,26900,50000,6964,43838,0,0,0,0,0.00,0.00,0.00,0.00
2017-06-18 04:30:00,0,40071,0,0.00,0,0,0,0,24907,49499,6641,41380,0,0,0,0,0.00,0.00,0.00,0.00
2017-06-18 04:40:00,0,49864,0,0.00,0,0,0,0,48637,50000,409,50000,0,0,0,0,0.00,0.00,0.00,0.00
2017-06-18 04:50:00,0,47757,0,0.00,0,0,0,0,39247,50000,3394,50000,0,0,0,0,0.00,0.00,0.00,0.00
2017-06-18 05:00:00,0,47704,0,0.00,0,0,0,0,41522,50000,3337,50000,0,0,0,0,0.00,0.00,0.00,0.00
2017-06-18 05:10:00,0,47068,0,0.00,0,0,0,0,40745,50000,3092,47108,0,0,0,0,0.00,0.00,0.00,0.00
2017-06-18 05:20:00,0,46469,0,0.00,0,0,0,0,41603,50000,3194,46478,0,0,0,0,0.00,0.00,0.00,0.00
2017-06-18 05:30:00,0,49170,0,0.00,0,0,0,0,43538,50000,1913,50000,0,0,0,0,0.00,0.00,0.00,0.00
2017-06-18 05:40:00,0,48312,0,0.00,0,0,0,0,41110,50000,2638,49378,0,0,0,0,0.00,0.00,0.00,0.00
2017-06-18 05:50:00,0,47913,0,0.00,0,0,0,0,44236,50000,2585,50000,0,0,0,0,0.00,0.00,0.00,0.00
2017-06-18 06:00:00,0,49062,0,0.00,0,0,0,0,44077,50000,1955,50000,0,0,0,0,0.00,0.00,0.00,0.00
2017-06-18 06:10:00,0,47026,0,0.00,0,0,0,0,39459,50000,3981,49709,0,0,0,0,0.00,0.00,0.00,0.00
2017-06-18 06:20:00,0,47927,0,0.00,0,0,0,0,39989,50000,3319,50000,0,0,0,0,0.00,0.00,0.00,0.00
2017-06-18 06:30:00,0,48692,0,0.00,0,0,0,0,46843,50000,1272,49013,0,0,0,0,0.00,0.00,0.00,0.00
2017-06-18 06:40:00,0,49302,0,0.00,0,0,0,0,43271,50000,2012,50000,0,0,0,0,0.00,0.00,0.00,0.00
2017-06-18 06:50:00,0,46790,0,0.00,0,0,0,0,33699,50000,4806,48660,0,0,0,0,0.00,0.00,0.00,0.00
2017-06-18 07:00:00,0,48467,0,0.00,0,0,0,0,40925,50000,2646,49536,0,0,0,0,0.00,0.00,0.00,0.00
2017-06-18 07:10:00,0,47638,0,0.00,0,0,0,0,42622,50000,2683,48783,0,0,0,0,0.00,0.00,0.00,0.00
2017-06-18 07:20:00,0,48840,0,0.00,0,0,0,0,40779,50000,2746,50000,0,0,0,0,0.00,0.00,0.00,0.00
2017-06-18 07:30:00,0,45558,0,0.00,0,0,0,0,36883,50000,4329,47520,0,0,0,0,0.00,0.00,0.00,0.00
2017-06-18 07:40:00,0,48147,0,0.00,0,0,0,0,41041,50000,2676,49417,0,0,0,0,0.00,0.00,0.00,0.00
2017-06-18 07:50:00,0,47654,0,0.00,0,0,0,0,42354,50000,2794,49550,0,0,0,0,0.00,0.00,0.00,0.00
2017-06-18 08:00:00,0,47859,0,0.00,0,0,0,0,42378,50000,3096,50000,0,0,0,0,0.00,0.00,0.00,0.00
2017-06-18 08:10:00,0,47344,0,0.00,0,0,0,0,39940,50000,3406,49011,0,0,0,0,0.00,0.00,0.00,0.00
2017-06-18 08:20:00,0,48499,0,0.00,0,0,0,0,42903,50000,2462,50000,0,0,0,0,0.00,0.00,0.00,0.00
2017-06-18 08:30:00,0,47474,0,0.00,0,0,0,0,42859,50000,2540,48314,0,0,0,0,0.00,0.00,0.00,0.00
2017-06-18 08:40:00,0,49468,0,0.00,0,0,0,0,46476,50000,1132,50000,0,0,0,0,0.00,0.00,0.00,0.00
2017-06-18 08:50:00,0,49247,0,0.00,0,0,0,0,43424,50000,1957,50000,0,0,0,0,0.00,0.00,0.00,0.00
2017-06-18 09:00:00,0,49787,0,0.00,0,0,0,0,47868,50000,640,50000,0,0,0,0,0.00,0.00,0.00,0.00
2017-06-18 09:10:00,0,49944,0,0.00,0,0,0,0,49574,50000,130,50000,0,0,0,0,0.00,0.00,0.00,0.00
2017-06-18 09:20:00,0,49890,0,0.00,0,0,0,0,49367,50000,223,50000,0,0,0,0,0.00,0.00,0.00,0.00
2017-06-18 09:30:00,0,49766,0,0.00,0,0,0,0,48423,50000,502,50000,0,0,0,0,0.00,0.00,0.00,0.00
2017-06-18 09:40:00,0,50000,0,0.00,0,0,0,0,50000,50000,0,50000,0,0,0,0,0.00,0.00,0.00,0.00
2017-06-18 09:50:00,0,49589,0,0.00,0,0,0,0,48135,50000,656,50000,0,0,0,0,0.00,0.00,0.00,0.00
2017-06-18 10:00:00,0,49615,0,0.00,0,0,0,0,47950,50000,772,50000,0,0,0,0,0.00,0.00,0.00,0.00
2017-06-18 10:10:00,0,49022,0,0.00,0,0,0,0,42191,50000,2347,50000,0,0,0,0,0.00,0.00,0.00,0.00
2017-06-18 10:20:00,0,49972,0,0.00,0,0,0,0,49723,50000,83,50000,0,0,0,0,0.00,0.00,0.00,0.00
2017-06-18 10:30:00,0,50000,0,0.00,0,0,0,0,50000,50000,0,50000,0,0,0,0,0.00,0.00,0.00,0.00
2017-06-18 10:40:00,0,49054,0,0.00,0,0,0,0,45818,50000,1513,50000,0,0,0,0,0.00,0.00,0.00,0.00
2017-06-18 10:50:00,0,48868,0,0.00,0,0,0,0,42492,50000,2267,50000,0,0,0,0,0.00,0.00,0.00,0.00
2017-06-18 11:00:00,0,50000,0,0.00,0,0,0,0,50000,50000,0,50000,0,0,0,0,0.00,0.00,0.00,0.00
2017-06-18 11:10:00,0,50000,0,0.00,0,0,0,0,50000,50000,0,50000,0,0,0,0,0.00,0.00,0.00,0.00
2017-06-18 11:20:00,0,49870,0,0.00,0,0,0,0,48700,50000,390,50000,0,0,0,0,0.00,0.00,0.00,0.00
2017-06-18 11:30:00,0,49464,0,0.00,0,0,0,0,48060,50000,667,49806,0,0,0,0,0.00,0.00,0.00,0.00
2017-06-18 11:40:00,0,49087,0,0.00,0,0,0,0,42449,50000,2262,50000,0,0,0,0,0.00,0.00,0.00,0.00
2017-06-18 11:50:00,0,48008,0,0.00,0,0,0,0,41396,50000,2982,50000,0,0,0,0,0.00,0.00,0.00,0.00
2017-06-18 12:00:00,0,49413,0,0.00,0,0,0,0,46712,50000,1118,50000,0,0,0,0,0.00,0.00,0.00,0.00
2017-06-18 12:10:00,0,49964,0,0.00,0,0,0,0,49640,50000,108,50000,0,0,0,0,0.00,0.00,0.00,0.00
2017-06-18 12:20:00,0,49915,0,0.00,0,0,0,0,49511,50000,172,50000,0,0,0,0,0.00,0.00,0.00,0.00
2017-06-18 12:30:00,0,50000,0,0.00,0,0,0,0,50000,50000,0,50000,0,0,0,0,0.00,0.00,0.00,0.00
2017-06-18 12:40:00,0,50000,0,0.00,0,0,0,0,50000,50000,0,50000,0,0,0,0,0.00,0.00,0.00,0.00
2017-06-18 12:50:00,0,50000,0,0.00,0,0,0,0,50000,50000,0,50000,0,0,0,0,0.00,0.00,0.00,0.00
2017-06-18 13:00:00,0,49865,0,0.00,0,0,0,0,48650,50000,405,50000,0,0,0,0,0.00,0.00,0.00,0.00
2017-06-18 13:10:00,0,50000,0,0.00,0,0,0,0,50000,50000,0,50000,0,0,0,0,0.00,0.00,0.00,0.00
2017-06-18 13:20:00,0,50000,0,0.00,0,0,0,0,50000,50000,0,50000,0,0,0,0,0.00,0.00,0.00,0.00
2017-06-18 13:30:00,0,50000,0,0.00,0,0,0,0,50000,50000,0,50000,0,0,0,0,0.00,0.00,0.00,0.00
2017-06-18 13:40:00,0,50000,0,0.00,0,0,0,0,50000,50000,0,50000,0,0,0,0,0.00,0.00,0.00,0.00
2017-06-18 13:50:00,0,49868,0,0.00,0,0,0,0,48683,50000,395,50000,0,0,0,0,0.00,0.00,0.00,0.00
2017-06-18 14:00:00,0,50000,0,0.00,0,0,0,0,50000,50000,0,50000,0,0,0,0,0.00,0.00,0.00,0.00
2017-06-18 14:10:00,0,49815,0,0.00,0,0,0,0,48149,50000,555,50000,0,0,0,0,0.00,0.00,0.00,0.00
2017-06-18 14:20:00,0,50000,0,0.00,0,0,0,0,50000,50000,0,50000,0,0,0,0,0.00,0.00,0.00,0.00
2017-06-18 14:30:00,0,50000,0,0.00,0,0,0,0,50000,50000,0,50000,0,0,0,0,0.00,0.00,0.00,0.00
2017-06-18 14:40:00,0,49641,0,0.00,0,0,0,0,48024,50000,723,50000,0,0,0,0,0.00,0.00,0.00,0.00
2017-06-18 14:50:00,0,50000,0,0.00,0,0,0,0,50000,50000,0,50000,0,0,0,0,0.00,0.00,0.00,0.00
2017-06-18 15:00:00,0,50000,0,0.00,0,0,0,0,50000,50000,0,50000,0,0,0,0,0.00,0.00,0.00,0.00
2017-06-18 15:10:00,0,50000,0,0.00,0,0,0,0,50000,50000,0,50000,0,0,0,0,0.00,0.00,0.00,0.00
2017-06-18 15:20:00,0,50000,0,0.00,0,0,0,0,50000,50000,0,50000,0,0,0,0,0.00,0.00,0.00,0.00
2017-06-18 15:30:00,0,50000,0,0.00,0,0,0,0,50000,50000,0,50000,0,0,0,0,0.00,0.00,0.00,0.00
2017-06-18 15:40:00,0,49783,0,0.00,0,0,0,0,48532,50000,447,50000,0,0,0,0,0.00,0.00,0.00,0.00
2017-06-18 15:50:00,0,49941,0,0.00,0,0,0,0,49491,50000,152,50000,0,0,0,0,0.00,0.00,0.00,0.00
2017-06-18 16:00:00,0,50000,0,0.00,0,0,0,0,50000,50000,0,50000,0,0,0,0,0.00,0.00,0.00,0.00
2017-06-18 16:10:00,0,50000,0,0.00,0,0,0,0,50000,50000,0,50000,0,0,0,0,0.00,0.00,0.00,0.00
2017-06-18 16:20:00,0,50000,0,0.00,0,0,0,0,50000,50000,0,50000,0,0,0,0,0.00,0.00,0.00,0.00
2017-06-18 16:30:00,0,50000,0,0.00,0,0,0,0,50000,50000,0,50000,0,0,0,0,0.00,0.00,0.00,0.00
2017-06-18 16:40:00,0,49603,0,0.00,0,0,0,0,47637,50000,812,50000,0,0,0,0,0.00,0.00,0.00,0.00
2017-06-18 16:50:00,0,49695,0,0.00,0,0,0,0,48765,50000,473,50000,0,0,0,0,0.00,0.00,0.00,0.00
2017-06-18 17:00:00,0,50000,0,0.00,0,0,0,0,50000,50000,0,50000,0,0,0,0,0.00,0.00,0.00,0.00
2017-06-18 17:10:00,0,50000,0,0.00,0,0,0,0,50000,50000,0,50000,0,0,0,0,0.00,0.00,0.00,0.00
2017-06-18 17:20:00,0,50000,0,0.00,0,0,0,0,50000,50000,0,50000,0,0,0,0,0.00,0.00,0.00,0.00
2017-06-18 17:30:00,0,50000,0,0.00,0,0,0,0,50000,50000,0,50000,0,0,0,0,0.00,0.00,0.00,0.00
2017-06-18 17:40:00,0,49834,0,0.00,0,0,0,0,48705,50000,392,50000,0,0,0,0,0.00,0.00,0.00,0.00
2017-06-18 17:50:00,0,50000,0,0.00,0,0,0,0,50000,50000,0,50000,0,0,0,0,0.00,0.00,0.00,0.00
2017-06-18 18:00:00,0,49846,0,0.00,0,0,0,0,48464,50000,461,50000,0,0,0,0,0.00,0.00,0.00,0.00
2017-06-18 18:10:00,0,50000,0,0.00,0,0,0,0,50000,50000,0,50000,0,0,0,0,0.00,0.00,0.00,0.00
2017-06-18 18:20:00,0,50000,0,0.00,0,0,0,0,50000,50000,0,50000,0,0,0,0,0.00,0.00,0.00,0.00
2017-06-18 18:30:00,0,49956,0,0.00,0,0,0,0,49563,50000,131,50000,0,0,0,0,0.00,0.00,0.00,0.00
2017-06-18 18:40:00,0,49764,0,0.00,0,0,0,0,48312,50000,499,50000,0,0,0,0,0.00,0.00,0.00,0.00
2017-06-18 18:50:00,0,49721,0,0.00,0,0,0,0,48335,50000,570,50000,0,0,0,0,0.00,0.00,0.00,0.00
2017-06-18 19:00:00,0,50000,0,0.00,0,0,0,0,50000,50000,0,50000,0,0,0,0,0.00,0.00,0.00,0.00
2017-06-18 19:10:00,0,49723,0,0.00,0,0,0,0,47227,50000,832,50000,0,0,0,0,0.00,0.00,0.00,0.00
2017-06-18 19:20:00,0,49452,0,0.00,0,0,0,0,47308,50000,836,50000,0,0,0,0,0.00,0.00,0.00,0.00
2017-06-18 19:30:00,0,50000,0,0.00,0,0,0,0,50000,50000,0,50000,0,0,0,0,0.00,0.00,0.00,0.00
2017-06-18 19:40:00,0,48635,0,0.00,0,0,0,0,40961,50000,2904,50000,0,0,0,0,0.00,0.00,0.00,0.00
2017-06-18 19:50:00,0,49940,0,0.00,0,0,0,0,49401,50000,180,50000,0,0,0,0,0.00,0.00,0.00,0.00
2017-06-18 20:00:00,0,49995,0,0.00,0,0,0,0,49953,50000,14,50000,0,0,0,0,0.00,0.00,0.00,0.00
2017-06-18 20:10:00,0,50000,0,0.00,0,0,0,0,50000,50000,0,50000,0,0,0,0,0.00,0.00,0.00,0.00
2017-06-18 20:20:00,0,50000,0,0.00,0,0,0,0,50000,50000,0,50000,0,0,0,0,0.00,0.00,0.00,0.00
2017-06-18 20:30:00,0,48471,0,0.00,0,0,0,0,43017,50000,2327,50000,0,0,0,0,0.00,0.00,0.00,0.00
2017-06-18 20:40:00,0,49372,0,0.00,0,0,0,0,46149,50000,1176,50000,0,0,0,0,0.00,0.00,0.00,0.00
2017-06-18 20:50:00,0,49281,0,0.00,0,0,0,0,43776,50000,1858,50000,0,0,0,0,0.00,0.00,0.00,0.00
2017-06-18 21:00:00,0,47942,0,0.00,0,0,0,0,42158,50000,3026,50000,0,0,0,0,0.00,0.00,0.00,0.00
2017-06-18 21:10:00,0,48396,0,0.00,0,0,0,0,42974,50000,2209,49745,0,0,0,0,0.00,0.00,0.00,0.00
2017-06-18 21:20:00,0,49721,0,0.00,0,0,0,0,47899,50000,641,50000,0,0,0,0,0.00,0.00,0.00,0.00
2017-06-18 21:30:00,0,49435,0,0.00,0,0,0,0,44947,50000,1506,50000,0,0,0,0,0.00,0.00,0.00,0.00
2017-06-18 21:40:00,0,45833,0,0.00,0,0,0,0,37839,50000,3594,46401,0,0,0,0,0.00,0.00,0.00,0.00
2017-06-18 21:50:00,0,49269,0,0.00,0,0,0,0,47669,50000,766,49473,0,0,0,0,0.00,0.00,0.00,0.00
2017-06-18 22:00:00,0,49684,0,0.00,0,0,0,0,47705,50000,708,50000,0,0,0,0,0.00,0.00,0.00,0.00
2017-06-18 22:10:00,0,49980,0,0.00,0,0,0,0,49802,50000,59,50000,0,0,0,0,0.00,0.00,0.00,0.00
2017-06-18 22:20:00,0,50000,0,0.00,0,0,0,0,50000,50000,0,50000,0,0,0,0,0.00,0.00,0.00,0.00
2017-06-18 22:30:00,0,48822,0,0.00,0,0,0,0,44560,50000,1906,50000,0,0,0,0,0.00,0.00,0.00,0.00
2017-06-18 22:40:00,0,49206,0,0.00,0,0,0,0,45570,50000,1602,50000,0,0,0,0,0.00,0.00,0.00,0.00
2017-06-18 22:50:00,0,50000,0,0.00,0,0,0,0,50000,50000,0,50000,0,0,0,0,0.00,0.00,0.00,0.00
2017-06-18 23:00:00,0,50000,0,0.00,0,0,0,0,50000,50000,0,50000,0,0,0,0,0.00,0.00,0.00,0.00
2017-06-18 23:10:00,0,49422,0,0.00,0,0,0,0,44222,50000,1733,50000,0,0,0,0,0.00,0.00,0.00,0.00
2017-06-18 23:20:00,0,49742,0,0.00,0,0,0,0,48595,50000,519,50000,0,0,0,0,0.00,0.00,0.00,0.00
2017-06-18 23:30:00,0,49371,0,0.00,0,0,0,0,45504,50000,1342,50000,0,0,0,0,0.00,0.00,0.00,0.00
2017-06-18 23:40:00,0,49904,0,0.00,0,0,0,0,49246,50000,228,50000,0,0,0,0,0.00,0.00,0.00,0.00
2017-06-18 23:50:00,0,47566,0,0.00,0,0,0,0,42271,50000,3011,49064,0,0,0,0,0.00,0.00,0.00,0.00
